| time (UTC) | temp F | wind direction | speed MPH | gust MPH | rain 1hr in | rain 24hr in | rain mn in | humidity % | barometer mb |
| 20260507020831 | 59 | 71 | 0.0 | 0.0 | 0.00 | 0.16 | 0.16 | 85 | 1017.4 |
| 20260507020328 | 59 | 58 | 1.0 | 1.0 | 0.00 | 0.16 | 0.16 | 85 | 1017.5 |
| 20260507015825 | 59 | 72 | 1.0 | 1.0 | 0.00 | 0.16 | 0.16 | 85 | 1017.2 |
| 20260507015323 | 59 | 299 | 0.0 | 0.0 | 0.00 | 0.16 | 0.16 | 85 | 1017.3 |
| 20260507014820 | 59 | 31 | 3.0 | 3.0 | 0.00 | 0.16 | 0.16 | 85 | 1017.0 |
| 20260507014316 | 59 | 351 | 2.0 | 5.0 | 0.00 | 0.16 | 0.16 | 85 | 1017.1 |
| 20260507013812 | 59 | 310 | 1.0 | 5.0 | 0.00 | 0.16 | 0.16 | 86 | 1016.9 |
| 20260507013309 | 60 | 30 | 2.0 | 2.0 | 0.00 | 0.16 | 0.16 | 86 | 1017.0 |
| 20260507012807 | 60 | 98 | 1.0 | 1.0 | 0.00 | 0.16 | 0.16 | 86 | 1016.8 |
| 20260507012306 | 60 | 283 | 1.0 | 1.0 | 0.00 | 0.16 | 0.16 | 86 | 1016.6 |
| 20260507011800 | 60 | 270 | 0.0 | 0.0 | 0.00 | 0.16 | 0.16 | 86 | 1016.8 |
| 20260507011256 | 60 | 56 | 0.0 | 1.0 | 0.00 | 0.16 | 0.16 | 86 | 1016.6 |
| 20260507010756 | 60 | 34 | 2.0 | 2.0 | 0.00 | 0.16 | 0.16 | 86 | 1016.4 |
| 20260507010252 | 60 | 300 | 0.0 | 1.0 | 0.00 | 0.16 | 0.16 | 86 | 1016.3 |
| 20260507005750 | 60 | 304 | 1.0 | 2.0 | 0.00 | 0.16 | 0.16 | 86 | 1016.4 |
| 20260507005246 | 60 | 278 | 0.0 | 0.0 | 0.00 | 0.16 | 0.16 | 86 | 1016.5 |
| 20260507004743 | 60 | 28 | 0.0 | 1.0 | 0.00 | 0.16 | 0.16 | 86 | 1016.4 |
| 20260507004241 | 60 | 326 | 1.0 | 1.0 | 0.00 | 0.16 | 0.16 | 86 | 1016.4 |
| 20260507003736 | 59 | 309 | 0.0 | 1.0 | 0.00 | 0.16 | 0.16 | 86 | 1016.2 |
| 20260507003232 | 59 | 32 | 0.0 | 0.0 | 0.00 | 0.16 | 0.16 | 85 | 1016.0 |
| 20260507002728 | 59 | 284 | 1.0 | 1.0 | 0.00 | 0.16 | 0.16 | 85 | 1016.1 |
| 20260507002224 | 60 | 68 | 1.0 | 2.0 | 0.00 | 0.16 | 0.16 | 85 | 1015.8 |
| 20260507001721 | 60 | 23 | 1.0 | 1.0 | 0.00 | 0.16 | 0.16 | 85 | 1016.1 |
| 20260507001218 | 60 | 7 | 0.0 | 1.0 | 0.00 | 0.16 | 0.16 | 85 | 1016.1 |
| 20260507000715 | 60 | 42 | 2.0 | 2.0 | 0.00 | 0.16 | 0.16 | 85 | 1015.8 |
| 20260507000212 | 60 | 351 | 3.0 | 3.0 | 0.00 | 0.16 | 0.16 | 85 | 1015.6 |
| 20260506235708 | 60 | 78 | 0.0 | 1.0 | 0.00 | 0.16 | 0.16 | 84 | 1015.7 |
| 20260506235203 | 60 | 156 | 0.0 | 1.0 | 0.00 | 0.16 | 0.16 | 84 | 1015.6 |
| 20260506234700 | 60 | 40 | 1.0 | 2.0 | 0.00 | 0.16 | 0.16 | 84 | 1015.8 |
| 20260506234157 | 60 | 279 | 2.0 | 3.0 | 0.00 | 0.16 | 0.16 | 84 | 1015.9 |
| 20260506233655 | 60 | 24 | 0.0 | 1.0 | 0.00 | 0.16 | 0.16 | 84 | 1016.0 |
| 20260506233151 | 60 | 26 | 0.0 | 2.0 | 0.00 | 0.16 | 0.16 | 84 | 1015.9 |
| 20260506232647 | 60 | 354 | 2.0 | 2.0 | 0.00 | 0.16 | 0.16 | 83 | 1015.7 |
| 20260506232143 | 60 | 55 | 1.0 | 1.0 | 0.00 | 0.16 | 0.16 | 83 | 1015.7 |
| 20260506231640 | 60 | 14 | 1.0 | 2.0 | 0.00 | 0.16 | 0.16 | 82 | 1015.4 |
| 20260506231139 | 61 | 262 | 0.0 | 1.0 | 0.00 | 0.16 | 0.16 | 81 | 1015.3 |
| 20260506230635 | 61 | 60 | 1.0 | 1.0 | 0.00 | 0.16 | 0.16 | 81 | 1015.3 |
| 20260506230132 | 61 | 298 | 2.0 | 2.0 | 0.00 | 0.16 | 0.16 | 81 | 1015.4 |
| 20260506225628 | 61 | 290 | 3.0 | 3.0 | 0.00 | 0.16 | 0.16 | 81 | 1014.9 |
| 20260506225125 | 60 | 60 | 3.0 | 6.0 | 0.00 | 0.16 | 0.16 | 81 | 1015.2 |
| 20260506224622 | 60 | 342 | 0.0 | 1.0 | 0.00 | 0.16 | 0.16 | 82 | 1015.3 |
| 20260506224118 | 60 | 313 | 1.0 | 1.0 | 0.00 | 0.16 | 0.16 | 82 | 1015.7 |
| 20260506223614 | 60 | 21 | 3.0 | 5.0 | 0.00 | 0.16 | 0.16 | 81 | 1015.2 |
| 20260506223110 | 60 | 101 | 0.0 | 0.0 | 0.00 | 0.16 | 0.16 | 82 | 1015.4 |
| 20260506222608 | 60 | 20 | 4.0 | 5.0 | 0.00 | 0.16 | 0.16 | 81 | 1015.4 |
| 20260506222104 | 60 | 312 | 3.0 | 3.0 | 0.00 | 0.16 | 0.16 | 81 | 1015.4 |
| 20260506221602 | 60 | 331 | 1.0 | 2.0 | 0.00 | 0.16 | 0.16 | 81 | 1015.6 |
| 20260506221100 | 60 | 24 | 3.0 | 7.0 | 0.00 | 0.16 | 0.16 | 80 | 1015.2 |
| 20260506220555 | 60 | 342 | 4.0 | 5.0 | 0.00 | 0.16 | 0.16 | 80 | 1014.7 |
| 20260506220051 | 61 | 5 | 3.0 | 5.0 | 0.00 | 0.16 | 0.16 | 80 | 1014.9 |
| 20260506215548 | 61 | 352 | 0.0 | 1.0 | 0.00 | 0.16 | 0.16 | 80 | 1015.1 |
| 20260506215044 | 61 | 294 | 1.0 | 1.0 | 0.00 | 0.16 | 0.16 | 80 | 1014.7 |
| 20260506214541 | 61 | 358 | 0.0 | 0.0 | 0.00 | 0.16 | 0.16 | 80 | 1015.4 |
| 20260506214038 | 61 | 309 | 2.0 | 2.0 | 0.00 | 0.16 | 0.16 | 80 | 1014.9 |
| 20260506213536 | 61 | 298 | 3.0 | 7.0 | 0.00 | 0.16 | 0.16 | 80 | 1015.0 |
| 20260506213033 | 61 | 0 | 3.0 | 3.0 | 0.00 | 0.16 | 0.16 | 79 | 1015.1 |
| 20260506212530 | 61 | 275 | 2.0 | 2.0 | 0.00 | 0.16 | 0.16 | 79 | 1015.1 |
| 20260506212025 | 62 | 280 | 3.0 | 3.0 | 0.00 | 0.16 | 0.16 | 78 | 1015.0 |
| 20260506211521 | 62 | 19 | 1.0 | 2.0 | 0.00 | 0.16 | 0.16 | 77 | 1015.1 |
| 20260506211018 | 62 | 254 | 0.0 | 1.0 | 0.00 | 0.16 | 0.16 | 78 | 1015.3 |
| 20260506210515 | 62 | 333 | 1.0 | 1.0 | 0.00 | 0.16 | 0.16 | 79 | 1015.1 |
| 20260506210011 | 61 | 278 | 2.0 | 3.0 | 0.00 | 0.16 | 0.16 | 80 | 1015.3 |
| 20260506205508 | 61 | 310 | 1.0 | 1.0 | 0.00 | 0.16 | 0.16 | 80 | 1015.3 |
| 20260506205003 | 61 | 262 | 3.0 | 3.0 | 0.00 | 0.16 | 0.16 | 80 | 1015.4 |
| 20260506204502 | 61 | 300 | 3.0 | 3.0 | 0.00 | 0.16 | 0.16 | 79 | 1015.4 |
| 20260506203958 | 61 | 298 | 2.0 | 2.0 | 0.00 | 0.16 | 0.16 | 79 | 1015.5 |
| 20260506203456 | 62 | 296 | 3.0 | 5.0 | 0.00 | 0.16 | 0.16 | 79 | 1015.5 |
| 20260506202953 | 62 | 337 | 1.0 | 1.0 | 0.00 | 0.16 | 0.16 | 80 | 1015.4 |
| 20260506202450 | 60 | 267 | 0.0 | 1.0 | 0.00 | 0.16 | 0.16 | 81 | 1015.5 |
| 20260506201946 | 60 | 340 | 2.0 | 2.0 | 0.00 | 0.16 | 0.16 | 81 | 1015.8 |
| 20260506201444 | 60 | 317 | 2.0 | 2.0 | 0.00 | 0.16 | 0.16 | 81 | 1015.7 |
| 20260506200940 | 60 | 293 | 6.0 | 8.0 | 0.00 | 0.16 | 0.16 | 81 | 1016.0 |
| 20260506200437 | 60 | 275 | 3.0 | 7.0 | 0.00 | 0.16 | 0.16 | 82 | 1016.1 |
| 20260506195933 | 60 | 232 | 2.0 | 2.0 | 0.00 | 0.16 | 0.16 | 82 | 1016.0 |
| 20260506195430 | 59 | 15 | 2.0 | 2.0 | 0.00 | 0.16 | 0.16 | 84 | 1015.9 |
| 20260506194927 | 59 | 34 | 3.0 | 3.0 | 0.00 | 0.16 | 0.16 | 84 | 1015.6 |
| 20260506194424 | 59 | 299 | 3.0 | 5.0 | 0.00 | 0.16 | 0.16 | 85 | 1015.9 |
| 20260506193921 | 59 | 317 | 2.0 | 3.0 | 0.00 | 0.16 | 0.16 | 86 | 1015.9 |
| 20260506193418 | 58 | 291 | 1.0 | 1.0 | 0.00 | 0.16 | 0.16 | 87 | 1016.1 |
| 20260506192914 | 58 | 321 | 3.0 | 5.0 | 0.00 | 0.16 | 0.16 | 88 | 1016.4 |
| 20260506192411 | 57 | 300 | 1.0 | 1.0 | 0.00 | 0.16 | 0.16 | 88 | 1016.2 |
| 20260506191908 | 57 | 292 | 1.0 | 1.0 | 0.00 | 0.16 | 0.16 | 88 | 1016.5 |
| 20260506191404 | 57 | 301 | 4.0 | 5.0 | 0.00 | 0.16 | 0.16 | 88 | 1016.3 |
| 20260506190902 | 57 | 319 | 2.0 | 2.0 | 0.00 | 0.16 | 0.16 | 88 | 1016.3 |
| 20260506190358 | 57 | 317 | 2.0 | 2.0 | 0.00 | 0.16 | 0.16 | 88 | 1016.2 |
| 20260506185855 | 57 | 341 | 2.0 | 3.0 | 0.00 | 0.16 | 0.16 | 89 | 1016.3 |
| 20260506185352 | 57 | 305 | 0.0 | 1.0 | 0.00 | 0.16 | 0.16 | 89 | 1016.4 |
| 20260506184849 | 57 | 344 | 1.0 | 1.0 | 0.00 | 0.16 | 0.16 | 89 | 1016.4 |
| 20260506184346 | 57 | 343 | 2.0 | 3.0 | 0.00 | 0.16 | 0.16 | 89 | 1016.0 |
| 20260506183843 | 57 | 356 | 0.0 | 1.0 | 0.00 | 0.16 | 0.16 | 91 | 1015.8 |
| 20260506183338 | 57 | 123 | 0.0 | 0.0 | 0.00 | 0.16 | 0.16 | 91 | 1015.6 |
| 20260506182836 | 56 | 179 | 1.0 | 2.0 | 0.00 | 0.16 | 0.16 | 93 | 1015.3 |
| 20260506182333 | 56 | 296 | 0.0 | 1.0 | 0.00 | 0.16 | 0.16 | 94 | 1014.8 |
| 20260506181831 | 55 | 294 | 1.0 | 1.0 | 0.00 | 0.16 | 0.16 | 95 | 1014.6 |
| 20260506181329 | 56 | 262 | 2.0 | 2.0 | 0.00 | 0.16 | 0.16 | 96 | 1014.6 |
| 20260506180825 | 55 | 277 | 1.0 | 2.0 | 0.00 | 0.16 | 0.16 | 96 | 1014.9 |
| 20260506180321 | 55 | 13 | 6.0 | 9.0 | 0.00 | 0.16 | 0.16 | 96 | 1014.6 |
| 20260506175818 | 55 | 26 | 1.0 | 2.0 | 0.00 | 0.16 | 0.16 | 97 | 1014.7 |
| 20260506175315 | 54 | 353 | 1.0 | 2.0 | 0.00 | 0.16 | 0.16 | 97 | 1015.0 |
| 20260506174812 | 54 | 137 | 2.0 | 3.0 | 0.00 | 0.16 | 0.16 | 97 | 1015.4 |
| 20260506174309 | 54 | 9 | 3.0 | 6.0 | 0.00 | 0.16 | 0.16 | 97 | 1015.5 |
| 20260506173807 | 55 | 300 | 2.0 | 2.0 | 0.00 | 0.16 | 0.16 | 97 | 1015.6 |
| 20260506173303 | 55 | 231 | 2.0 | 3.0 | 0.00 | 0.16 | 0.16 | 97 | 1015.9 |
| 20260506172800 | 54 | 13 | 0.0 | 1.0 | 0.05 | 0.16 | 0.16 | 97 | 1016.0 |
| 20260506172257 | 54 | 12 | 1.0 | 2.0 | 0.05 | 0.16 | 0.16 | 97 | 1015.9 |
| 20260506171754 | 54 | 86 | 0.0 | 0.0 | 0.00 | 0.15 | 0.15 | 97 | 1015.9 |
| 20260506171251 | 54 | 342 | 1.0 | 1.0 | 0.00 | 0.15 | 0.15 | 97 | 1015.9 |
| 20260506170749 | 54 | 273 | 0.0 | 1.0 | 0.00 | 0.15 | 0.15 | 97 | 1016.0 |
| 20260506170245 | 53 | 329 | 10.0 | 11.0 | 0.00 | 0.15 | 0.15 | 96 | 1015.8 |
| 20260506165744 | 53 | 22 | 6.0 | 9.0 | 0.00 | 0.15 | 0.15 | 96 | 1015.3 |
| 20260506165240 | 53 | 279 | 3.0 | 3.0 | 0.00 | 0.15 | 0.15 | 97 | 1015.6 |
| 20260506164737 | 54 | 24 | 3.0 | 3.0 | 0.00 | 0.15 | 0.15 | 96 | 1015.9 |
| 20260506164234 | 54 | 355 | 3.0 | 5.0 | 0.00 | 0.15 | 0.15 | 96 | 1015.8 |
| 20260506163731 | 54 | 336 | 5.0 | 8.0 | 0.00 | 0.15 | 0.15 | 96 | 1016.0 |
| 20260506163226 | 55 | 306 | 3.0 | 5.0 | 0.00 | 0.15 | 0.15 | 96 | 1016.1 |
| 20260506162722 | 55 | 293 | 0.0 | 1.0 | 0.00 | 0.15 | 0.15 | 97 | 1016.2 |
| 20260506162220 | 56 | 328 | 1.0 | 1.0 | 0.00 | 0.15 | 0.15 | 96 | 1016.0 |
| 20260506161712 | 54 | 313 | 1.0 | 2.0 | 0.00 | 0.15 | 0.15 | 97 | 1016.3 |
| 20260506161209 | 55 | 160 | 3.0 | 5.0 | 0.00 | 0.15 | 0.15 | 96 | 1016.4 |
| 20260506160706 | 54 | 322 | 0.0 | 0.0 | 0.00 | 0.15 | 0.15 | 96 | 1016.1 |
| 20260506160203 | 54 | 194 | 1.0 | 2.0 | 0.00 | 0.15 | 0.15 | 95 | 1016.4 |
| 20260506155701 | 54 | 303 | 2.0 | 2.0 | 0.00 | 0.15 | 0.15 | 95 | 1016.0 |
| 20260506155158 | 54 | 345 | 1.0 | 2.0 | 0.00 | 0.15 | 0.15 | 95 | 1015.4 |
| 20260506153306 | 54 | 258 | 1.0 | 1.0 | 0.12 | 0.02 | 0.02 | 88 | 1018.0 |
| 20260506152802 | 55 | 259 | 1.0 | 1.0 | 0.00 | 0.00 | 0.00 | 87 | 1017.6 |
| 20260506152300 | 55 | 275 | 1.0 | 1.0 | 0.00 | 0.00 | 0.00 | 87 | 1017.4 |
| 20260506151759 | 54 | 323 | 1.0 | 1.0 | 0.00 | 0.00 | 0.00 | 86 | 1017.4 |
| 20260506151255 | 55 | 252 | 2.0 | 3.0 | 0.00 | 0.00 | 0.00 | 86 | 1016.6 |
| 20260506150751 | 55 | 0 | 1.0 | 3.0 | 0.00 | 0.00 | 0.00 | 86 | 1016.8 |
| 20260506150249 | 55 | 287 | 1.0 | 2.0 | 0.00 | 0.00 | 0.00 | 85 | 1016.3 |
| 20260506145745 | 55 | 1 | 1.0 | 2.0 | 0.00 | 0.00 | 0.00 | 85 | 1016.3 |
| 20260506145242 | 55 | 305 | 1.0 | 1.0 | 0.00 | 0.00 | 0.00 | 85 | 1015.5 |
| 20260506144740 | 55 | 326 | 4.0 | 5.0 | 0.00 | 0.00 | 0.00 | 84 | 1015.7 |
| 20260506144236 | 55 | 322 | 2.0 | 3.0 | 0.00 | 0.00 | 0.00 | 84 | 1016.1 |
| 20260506143734 | 55 | 306 | 3.0 | 5.0 | 0.00 | 0.00 | 0.00 | 84 | 1016.2 |
| 20260506143231 | 55 | 301 | 1.0 | 2.0 | 0.00 | 0.00 | 0.00 | 84 | 1016.2 |
| 20260506142730 | 55 | 42 | 1.0 | 2.0 | 0.00 | 0.00 | 0.00 | 84 | 1016.1 |
| 20260506142227 | 54 | 355 | 0.0 | 0.0 | 0.00 | 0.00 | 0.00 | 85 | 1015.9 |
| 20260506141725 | 54 | 326 | 5.0 | 8.0 | 0.00 | 0.00 | 0.00 | 85 | 1015.8 |
| 20260506141223 | 54 | 346 | 3.0 | 5.0 | 0.00 | 0.00 | 0.00 | 85 | 1015.8 |
| 20260506140721 | 54 | 353 | 3.0 | 5.0 | 0.00 | 0.00 | 0.00 | 86 | 1015.7 |
| 20260506140217 | 54 | 357 | 5.0 | 7.0 | 0.00 | 0.00 | 0.00 | 86 | 1015.5 |
| 20260506135714 | 54 | 228 | 3.0 | 5.0 | 0.00 | 0.00 | 0.00 | 87 | 1015.5 |
| 20260506135211 | 54 | 21 | 1.0 | 2.0 | 0.00 | 0.00 | 0.00 | 87 | 1015.2 |
| 20260506134707 | 54 | 320 | 1.0 | 1.0 | 0.00 | 0.00 | 0.00 | 88 | 1015.3 |
| 20260506134204 | 54 | 315 | 5.0 | 7.0 | 0.00 | 0.00 | 0.00 | 88 | 1015.2 |
| 20260506133701 | 54 | 353 | 6.0 | 9.0 | 0.00 | 0.00 | 0.00 | 87 | 1015.2 |
| 20260506133157 | 54 | 329 | 2.0 | 3.0 | 0.00 | 0.00 | 0.00 | 87 | 1015.1 |
| 20260506132655 | 54 | 316 | 3.0 | 6.0 | 0.00 | 0.00 | 0.00 | 87 | 1015.0 |
| 20260506132151 | 54 | 255 | 1.0 | 1.0 | 0.00 | 0.00 | 0.00 | 87 | 1014.9 |
| 20260506131649 | 54 | 334 | 2.0 | 3.0 | 0.00 | 0.00 | 0.00 | 86 | 1015.1 |
| 20260506131145 | 54 | 345 | 3.0 | 5.0 | 0.00 | 0.00 | 0.00 | 86 | 1014.7 |
| 20260506130642 | 54 | 327 | 2.0 | 3.0 | 0.00 | 0.00 | 0.00 | 86 | 1015.0 |
| 20260506130139 | 54 | 11 | 3.0 | 5.0 | 0.00 | 0.00 | 0.00 | 86 | 1014.9 |
| 20260506125637 | 54 | 268 | 3.0 | 3.0 | 0.00 | 0.00 | 0.00 | 86 | 1015.0 |
| 20260506125135 | 54 | 14 | 3.0 | 6.0 | 0.00 | 0.00 | 0.00 | 86 | 1014.8 |
| 20260506124633 | 54 | 223 | 2.0 | 5.0 | 0.00 | 0.00 | 0.00 | 86 | 1014.6 |
| 20260506124131 | 54 | 300 | 4.0 | 7.0 | 0.00 | 0.00 | 0.00 | 85 | 1014.1 |
| 20260506123628 | 54 | 339 | 1.0 | 2.0 | 0.00 | 0.00 | 0.00 | 85 | 1014.4 |
| 20260506123127 | 55 | 291 | 7.0 | 9.0 | 0.00 | 0.00 | 0.00 | 84 | 1014.4 |
| 20260506122623 | 55 | 355 | 7.0 | 9.0 | 0.00 | 0.00 | 0.00 | 84 | 1014.5 |
| 20260506122120 | 55 | 353 | 2.0 | 3.0 | 0.00 | 0.00 | 0.00 | 83 | 1014.3 |
| 20260506121618 | 55 | 265 | 4.0 | 5.0 | 0.00 | 0.00 | 0.00 | 83 | 1014.4 |
| 20260506121114 | 55 | 352 | 4.0 | 7.0 | 0.00 | 0.00 | 0.00 | 83 | 1014.3 |
| 20260506120612 | 55 | 310 | 3.0 | 5.0 | 0.00 | 0.00 | 0.00 | 83 | 1014.1 |
| 20260506120109 | 55 | 330 | 4.0 | 7.0 | 0.00 | 0.00 | 0.00 | 83 | 1014.1 |
| 20260506115608 | 55 | 275 | 2.0 | 2.0 | 0.00 | 0.00 | 0.00 | 82 | 1014.0 |
| 20260506115106 | 55 | 321 | 5.0 | 6.0 | 0.00 | 0.00 | 0.00 | 82 | 1013.8 |
| 20260506114602 | 56 | 267 | 3.0 | 5.0 | 0.00 | 0.00 | 0.00 | 81 | 1013.9 |
| 20260506114101 | 56 | 337 | 3.0 | 5.0 | 0.00 | 0.00 | 0.00 | 81 | 1013.5 |
| 20260506113558 | 55 | 330 | 3.0 | 3.0 | 0.00 | 0.00 | 0.00 | 81 | 1013.5 |
| 20260506113055 | 55 | 288 | 2.0 | 2.0 | 0.00 | 0.00 | 0.00 | 81 | 1013.3 |
| 20260506112552 | 55 | 8 | 4.0 | 6.0 | 0.00 | 0.00 | 0.00 | 80 | 1013.6 |
| 20260506112049 | 56 | 341 | 5.0 | 6.0 | 0.00 | 0.00 | 0.00 | 80 | 1013.5 |
| 20260506111547 | 56 | 277 | 4.0 | 6.0 | 0.00 | 0.00 | 0.00 | 80 | 1013.3 |
| 20260506111044 | 56 | 317 | 7.0 | 9.0 | 0.00 | 0.00 | 0.00 | 80 | 1013.3 |
| 20260506110542 | 56 | 281 | 7.0 | 9.0 | 0.00 | 0.00 | 0.00 | 79 | 1013.2 |
| 20260506110039 | 56 | 287 | 4.0 | 5.0 | 0.00 | 0.00 | 0.00 | 79 | 1013.1 |
| 20260506105535 | 56 | 339 | 3.0 | 3.0 | 0.00 | 0.00 | 0.00 | 79 | 1013.1 |
| 20260506105032 | 57 | 357 | 3.0 | 5.0 | 0.00 | 0.00 | 0.00 | 79 | 1012.9 |
| 20260506104530 | 57 | 306 | 4.0 | 6.0 | 0.00 | 0.00 | 0.00 | 79 | 1012.9 |
| 20260506104028 | 57 | 263 | 3.0 | 3.0 | 0.00 | 0.00 | 0.00 | 79 | 1012.7 |
| 20260506103525 | 57 | 304 | 4.0 | 6.0 | 0.00 | 0.00 | 0.00 | 78 | 1012.7 |
| 20260506103022 | 58 | 335 | 3.0 | 6.0 | 0.00 | 0.00 | 0.00 | 77 | 1012.4 |
| 20260506102520 | 58 | 341 | 3.0 | 5.0 | 0.00 | 0.00 | 0.00 | 77 | 1012.3 |
| 20260506102017 | 58 | 311 | 4.0 | 5.0 | 0.00 | 0.00 | 0.00 | 77 | 1012.3 |
| 20260506101513 | 58 | 290 | 5.0 | 7.0 | 0.00 | 0.00 | 0.00 | 76 | 1012.0 |
| 20260506101011 | 58 | 352 | 3.0 | 3.0 | 0.00 | 0.00 | 0.00 | 77 | 1011.9 |
| 20260506100509 | 58 | 283 | 2.0 | 3.0 | 0.00 | 0.00 | 0.00 | 77 | 1012.0 |
| 20260506100007 | 59 | 309 | 1.0 | 1.0 | 0.00 | 0.00 | 0.00 | 77 | 1012.1 |
| 20260506095505 | 59 | 330 | 4.0 | 7.0 | 0.00 | 0.00 | 0.00 | 77 | 1012.1 |
| 20260506095000 | 59 | 328 | 2.0 | 2.0 | 0.00 | 0.00 | 0.00 | 77 | 1012.2 |
| 20260506094459 | 58 | 264 | 0.0 | 0.0 | 0.00 | 0.00 | 0.00 | 78 | 1012.0 |
| 20260506093956 | 59 | 310 | 3.0 | 3.0 | 0.00 | 0.00 | 0.00 | 78 | 1011.9 |
| 20260506093455 | 59 | 11 | 2.0 | 2.0 | 0.00 | 0.00 | 0.00 | 77 | 1012.0 |
| 20260506092952 | 59 | 275 | 0.0 | 0.0 | 0.00 | 0.00 | 0.00 | 78 | 1011.9 |
| 20260506092450 | 58 | 269 | 0.0 | 1.0 | 0.00 | 0.00 | 0.00 | 78 | 1012.1 |
| 20260506091946 | 59 | 358 | 2.0 | 3.0 | 0.00 | 0.00 | 0.00 | 78 | 1011.9 |
| 20260506091444 | 59 | 310 | 1.0 | 2.0 | 0.00 | 0.00 | 0.00 | 78 | 1011.9 |
| 20260506090941 | 59 | 310 | 2.0 | 2.0 | 0.00 | 0.00 | 0.00 | 78 | 1011.8 |
| 20260506090439 | 59 | 315 | 1.0 | 2.0 | 0.00 | 0.00 | 0.00 | 78 | 1011.7 |
| 20260506085935 | 59 | 324 | 4.0 | 5.0 | 0.00 | 0.00 | 0.00 | 78 | 1011.9 |
| 20260506085432 | 59 | 301 | 0.0 | 1.0 | 0.00 | 0.00 | 0.00 | 78 | 1011.5 |
| 20260506084928 | 59 | 36 | 1.0 | 1.0 | 0.00 | 0.00 | 0.00 | 78 | 1011.4 |
| 20260506084426 | 59 | 338 | 2.0 | 3.0 | 0.00 | 0.00 | 0.00 | 78 | 1011.5 |
| 20260506083921 | 59 | 270 | 3.0 | 5.0 | 0.00 | 0.00 | 0.00 | 78 | 1011.4 |
| 20260506083419 | 59 | 329 | 1.0 | 1.0 | 0.00 | 0.00 | 0.00 | 78 | 1011.3 |
| 20260506082916 | 59 | 282 | 1.0 | 1.0 | 0.00 | 0.00 | 0.00 | 78 | 1011.4 |
| 20260506082413 | 60 | 326 | 2.0 | 2.0 | 0.00 | 0.00 | 0.00 | 78 | 1011.1 |
| 20260506081908 | 60 | 25 | 0.0 | 1.0 | 0.00 | 0.00 | 0.00 | 78 | 1011.0 |
| 20260506081408 | 60 | 285 | 0.0 | 0.0 | 0.00 | 0.00 | 0.00 | 79 | 1011.0 |
| 20260506080904 | 60 | 324 | 1.0 | 1.0 | 0.00 | 0.00 | 0.00 | 79 | 1011.1 |
| 20260506080401 | 60 | 307 | 1.0 | 2.0 | 0.00 | 0.00 | 0.00 | 79 | 1011.1 |
| 20260506073345 | 60 | 314 | 2.0 | 3.0 | 0.00 | 0.00 | 0.00 | 79 | 1011.3 |
| 20260506072841 | 61 | 288 | 3.0 | 3.0 | 0.00 | 0.00 | 0.00 | 79 | 1011.3 |
| 20260506072339 | 61 | 276 | 3.0 | 3.0 | 0.00 | 0.00 | 0.00 | 79 | 1011.2 |
| 20260506071837 | 61 | 3 | 1.0 | 3.0 | 0.00 | 0.00 | 0.00 | 79 | 1011.2 |
| 20260506071335 | 60 | 341 | 2.0 | 2.0 | 0.00 | 0.00 | 0.00 | 79 | 1011.3 |
| 20260506070831 | 61 | 278 | 4.0 | 7.0 | 0.00 | 0.00 | 0.00 | 79 | 1011.5 |
| 20260506070328 | 61 | 2 | 3.0 | 3.0 | 0.00 | 0.00 | 0.00 | 80 | 1011.1 |
| 20260506062306 | 62 | 294 | 2.0 | 3.0 | 0.00 | 0.00 | 0.00 | 80 | 1011.1 |
| 20260506061801 | 62 | 312 | 1.0 | 1.0 | 0.00 | 0.00 | 0.00 | 79 | 1011.3 |
| 20260506061259 | 62 | 320 | 2.0 | 3.0 | 0.00 | 0.00 | 0.00 | 80 | 1011.3 |
| 20260506060757 | 62 | 301 | 5.0 | 6.0 | 0.00 | 0.00 | 0.00 | 80 | 1011.1 |
| 20260506060254 | 62 | 300 | 2.0 | 2.0 | 0.00 | 0.00 | 0.00 | 80 | 1011.1 |
| 20260506051226 | 64 | 306 | 4.0 | 6.0 | 0.00 | 0.00 | 0.00 | 80 | 1011.0 |
| 20260506050724 | 64 | 336 | 1.0 | 3.0 | 0.00 | 0.00 | 0.00 | 80 | 1010.6 |
| 20260506050221 | 64 | 359 | 1.0 | 3.0 | 0.00 | 0.00 | 0.00 | 80 | 1010.8 |
| 20260506044712 | 65 | 42 | 3.0 | 5.0 | 0.00 | 0.00 | 0.00 | 79 | 1010.8 |
| 20260506044209 | 65 | 299 | 4.0 | 5.0 | 0.00 | 0.00 | 0.00 | 79 | 1011.1 |
| 20260506043706 | 65 | 285 | 3.0 | 5.0 | 0.00 | 0.00 | 0.00 | 79 | 1010.8 |
| 20260506043204 | 66 | 359 | 5.0 | 7.0 | 0.00 | 0.00 | 0.00 | 79 | 1010.5 |
| 20260506042703 | 66 | 300 | 5.0 | 7.0 | 0.00 | 0.00 | 0.00 | 79 | 1010.6 |
| 20260506042201 | 66 | 276 | 3.0 | 3.0 | 0.00 | 0.00 | 0.00 | 79 | 1010.5 |
| 20260506041659 | 66 | 355 | 5.0 | 7.0 | 0.00 | 0.00 | 0.00 | 79 | 1010.4 |
| 20260506041155 | 67 | 333 | 4.0 | 6.0 | 0.00 | 0.00 | 0.00 | 79 | 1010.3 |
| 20260506040647 | 67 | 261 | 1.0 | 1.0 | 0.00 | 0.00 | 0.00 | 78 | 1010.1 |
| 20260506040144 | 68 | 354 | 4.0 | 5.0 | 0.00 | 0.00 | 0.00 | 78 | 1010.2 |
| 20260506035641 | 68 | 309 | 2.0 | 3.0 | 0.00 | 0.00 | 0.00 | 78 | 1010.1 |
| 20260506035137 | 69 | 4 | 4.0 | 6.0 | 0.00 | 0.00 | 0.00 | 78 | 1010.0 |
| 20260506034634 | 69 | 292 | 5.0 | 8.0 | 0.00 | 0.00 | 0.00 | 77 | 1010.0 |
| 20260506034131 | 69 | 278 | 3.0 | 3.0 | 0.00 | 0.00 | 0.00 | 77 | 1010.1 |
| 20260506033629 | 70 | 324 | 5.0 | 6.0 | 0.00 | 0.00 | 0.00 | 77 | 1009.7 |
| 20260506033126 | 70 | 307 | 3.0 | 3.0 | 0.00 | 0.00 | 0.00 | 77 | 1009.9 |
| 20260506032623 | 70 | 314 | 2.0 | 2.0 | 0.00 | 0.00 | 0.00 | 77 | 1010.0 |
| 20260506032120 | 70 | 296 | 2.0 | 2.0 | 0.00 | 0.00 | 0.00 | 77 | 1009.4 |
| 20260506031617 | 71 | 343 | 1.0 | 2.0 | 0.00 | 0.00 | 0.00 | 77 | 1009.4 |
| 20260506031114 | 71 | 282 | 3.0 | 5.0 | 0.00 | 0.00 | 0.00 | 76 | 1009.6 |
| 20260506030612 | 71 | 288 | 1.0 | 2.0 | 0.00 | 0.00 | 0.00 | 76 | 1009.6 |
| 20260506030109 | 71 | 2 | 3.0 | 5.0 | 0.00 | 0.00 | 0.00 | 76 | 1009.5 |
| 20260506025606 | 71 | 30 | 3.0 | 5.0 | 0.00 | 0.00 | 0.00 | 76 | 1009.3 |
| 20260506025102 | 72 | 358 | 4.0 | 6.0 | 0.00 | 0.00 | 0.00 | 76 | 1009.1 |
| 20260506024559 | 72 | 347 | 5.0 | 6.0 | 0.00 | 0.00 | 0.00 | 75 | 1009.0 |
| 20260506024056 | 74 | 358 | 5.0 | 9.0 | 0.00 | 0.00 | 0.00 | 73 | 1008.9 |
| 20260506023551 | 74 | 276 | 3.0 | 5.0 | 0.00 | 0.00 | 0.00 | 72 | 1008.2 |
| 20260506023049 | 74 | 23 | 3.0 | 5.0 | 0.00 | 0.00 | 0.00 | 72 | 1008.4 |
| 20260506022547 | 74 | 332 | 2.0 | 2.0 | 0.00 | 0.00 | 0.00 | 72 | 1008.2 |
| 20260506022044 | 74 | 348 | 5.0 | 6.0 | 0.00 | 0.00 | 0.00 | 72 | 1007.8 |
| 20260506021541 | 74 | 263 | 4.0 | 5.0 | 0.00 | 0.00 | 0.00 | 72 | 1008.0 |
| 20260506021039 | 74 | 261 | 1.0 | 1.0 | 0.00 | 0.00 | 0.00 | 71 | 1007.7 |